Year,Month,Day,Hour,Minute,Value (Times are PST for temperature in C)
2012,07,06,00,00,13.60
2012,07,06,00,01,13.60
2012,07,06,00,02,13.60
2012,07,06,00,03,13.60
2012,07,06,00,04,13.50
2012,07,06,00,05,13.50
2012,07,06,00,06,13.50
2012,07,06,00,07,13.40
2012,07,06,00,08,13.40
2012,07,06,00,09,13.40
2012,07,06,00,10,13.30
2012,07,06,00,11,13.30
2012,07,06,00,12,13.30
2012,07,06,00,13,13.20
2012,07,06,00,14,13.20
2012,07,06,00,15,13.20
2012,07,06,00,16,13.10
2012,07,06,00,17,13.10
2012,07,06,00,18,13.00
2012,07,06,00,19,13.00
2012,07,06,00,20,12.90
2012,07,06,00,21,12.90
2012,07,06,00,22,12.80
2012,07,06,00,23,12.80
2012,07,06,00,24,12.80
2012,07,06,00,25,12.70
2012,07,06,00,26,12.70
2012,07,06,00,27,12.70
2012,07,06,00,28,12.70
2012,07,06,00,29,12.60
2012,07,06,00,30,12.60
2012,07,06,00,31,12.60
2012,07,06,00,32,12.60
2012,07,06,00,33,12.50
2012,07,06,00,34,12.50
2012,07,06,00,35,12.40
2012,07,06,00,36,12.40
2012,07,06,00,37,12.40
2012,07,06,00,38,12.40
2012,07,06,00,39,12.40
2012,07,06,00,40,12.30
2012,07,06,00,41,12.30
2012,07,06,00,42,12.30
2012,07,06,00,43,12.30
2012,07,06,00,44,12.30
2012,07,06,00,45,12.30
2012,07,06,00,46,12.30
2012,07,06,00,47,12.30
2012,07,06,00,48,12.30
2012,07,06,00,49,12.30
2012,07,06,00,50,12.30
2012,07,06,00,51,12.30
2012,07,06,00,52,12.20
2012,07,06,00,53,12.20
2012,07,06,00,54,12.20
2012,07,06,00,55,12.20
2012,07,06,00,56,12.20
2012,07,06,00,57,12.20
2012,07,06,00,58,12.20
2012,07,06,00,59,12.20
2012,07,06,01,00,12.20
2012,07,06,01,01,12.20
2012,07,06,01,02,12.20
2012,07,06,01,03,12.20
2012,07,06,01,04,12.20
2012,07,06,01,05,12.20
2012,07,06,01,06,12.20
2012,07,06,01,07,12.20
2012,07,06,01,08,12.20
2012,07,06,01,09,12.20
2012,07,06,01,10,12.20
2012,07,06,01,11,12.20
2012,07,06,01,12,12.20
2012,07,06,01,13,12.20
2012,07,06,01,14,12.20
2012,07,06,01,15,12.20
2012,07,06,01,16,12.30
2012,07,06,01,17,12.20
2012,07,06,01,18,12.30
2012,07,06,01,19,12.30
2012,07,06,01,20,12.30
2012,07,06,01,21,12.30
2012,07,06,01,22,12.30
2012,07,06,01,23,12.30
2012,07,06,01,24,12.30
2012,07,06,01,25,12.30
2012,07,06,01,26,12.30
2012,07,06,01,27,12.30
2012,07,06,01,28,12.30
2012,07,06,01,29,12.40
2012,07,06,01,30,12.40
2012,07,06,01,31,12.40
2012,07,06,01,32,12.40
2012,07,06,01,33,12.40
2012,07,06,01,34,12.40
2012,07,06,01,35,12.40
2012,07,06,01,36,12.40
2012,07,06,01,37,12.40
2012,07,06,01,38,12.40
2012,07,06,01,39,12.40
2012,07,06,01,40,12.50
2012,07,06,01,41,12.50
2012,07,06,01,42,12.50
2012,07,06,01,43,12.50
2012,07,06,01,44,12.50
2012,07,06,01,45,12.50
2012,07,06,01,46,12.50
2012,07,06,01,47,12.50
2012,07,06,01,48,12.50
2012,07,06,01,49,12.50
2012,07,06,01,50,12.40
2012,07,06,01,51,12.40
2012,07,06,01,52,12.40
2012,07,06,01,53,12.50
2012,07,06,01,54,12.50
2012,07,06,01,55,12.50
2012,07,06,01,56,12.50
2012,07,06,01,57,12.50
2012,07,06,01,58,12.50
2012,07,06,01,59,12.50
2012,07,06,02,00,12.50
2012,07,06,02,01,12.50
2012,07,06,02,02,12.50
2012,07,06,02,03,12.50
2012,07,06,02,04,12.50
2012,07,06,02,05,12.50
2012,07,06,02,06,12.50
2012,07,06,02,07,12.50
2012,07,06,02,08,12.50
2012,07,06,02,09,12.50
2012,07,06,02,10,12.50
2012,07,06,02,11,12.50
2012,07,06,02,12,12.50
2012,07,06,02,13,12.50
2012,07,06,02,14,12.50
2012,07,06,02,15,12.50
2012,07,06,02,16,12.50
2012,07,06,02,17,12.50
2012,07,06,02,18,12.50
2012,07,06,02,19,12.50
2012,07,06,02,20,12.50
2012,07,06,02,21,12.40
2012,07,06,02,22,12.40
2012,07,06,02,23,12.40
2012,07,06,02,24,12.40
2012,07,06,02,25,12.30
2012,07,06,02,26,12.30
2012,07,06,02,27,12.30
2012,07,06,02,28,12.30
2012,07,06,02,29,12.20
2012,07,06,02,30,12.20
2012,07,06,02,31,12.20
2012,07,06,02,32,12.20
2012,07,06,02,33,12.20
2012,07,06,02,34,12.20
2012,07,06,02,35,12.20
2012,07,06,02,36,12.20
2012,07,06,02,37,12.20
2012,07,06,02,38,12.10
2012,07,06,02,39,12.10
2012,07,06,02,40,12.10
2012,07,06,02,41,12.10
2012,07,06,02,42,12.10
2012,07,06,02,43,12.00
2012,07,06,02,44,12.00
2012,07,06,02,45,12.00
2012,07,06,02,46,11.90
2012,07,06,02,47,11.90
2012,07,06,02,48,11.90
2012,07,06,02,49,11.90
2012,07,06,02,50,11.90
2012,07,06,02,51,11.80
2012,07,06,02,52,11.80
2012,07,06,02,53,11.80
2012,07,06,02,54,11.80
2012,07,06,02,55,11.70
2012,07,06,02,56,11.70
2012,07,06,02,57,11.70
2012,07,06,02,58,11.60
2012,07,06,02,59,11.60
2012,07,06,03,00,11.60
2012,07,06,03,01,11.60
2012,07,06,03,02,11.50
2012,07,06,03,03,11.50
2012,07,06,03,04,11.50
2012,07,06,03,05,11.40
2012,07,06,03,06,11.40
2012,07,06,03,07,11.40
2012,07,06,03,08,11.40
2012,07,06,03,09,11.40
2012,07,06,03,10,11.30
2012,07,06,03,11,11.30
2012,07,06,03,12,11.30
2012,07,06,03,13,11.30
2012,07,06,03,14,11.30
2012,07,06,03,15,11.30
2012,07,06,03,16,11.30
2012,07,06,03,17,11.30
2012,07,06,03,18,11.30
2012,07,06,03,19,11.30
2012,07,06,03,20,11.30
2012,07,06,03,21,11.30
2012,07,06,03,22,11.20
2012,07,06,03,23,11.20
2012,07,06,03,24,11.20
2012,07,06,03,25,11.20
2012,07,06,03,26,11.20
2012,07,06,03,27,11.20
2012,07,06,03,28,11.20
2012,07,06,03,29,11.20
2012,07,06,03,30,11.20
2012,07,06,03,31,11.20
2012,07,06,03,32,11.20
2012,07,06,03,33,11.10
2012,07,06,03,34,11.10
2012,07,06,03,35,11.10
2012,07,06,03,36,11.10
2012,07,06,03,37,11.10
2012,07,06,03,38,11.00
2012,07,06,03,39,11.00
2012,07,06,03,40,11.00
2012,07,06,03,41,11.00
2012,07,06,03,42,10.90
2012,07,06,03,43,10.90
2012,07,06,03,44,10.90
2012,07,06,03,45,10.90
2012,07,06,03,46,10.90
2012,07,06,03,47,10.80
2012,07,06,03,48,10.80
2012,07,06,03,49,10.80
2012,07,06,03,50,10.80
2012,07,06,03,51,10.80
2012,07,06,03,52,10.70
2012,07,06,03,53,10.70
2012,07,06,03,54,10.70
2012,07,06,03,55,10.70
2012,07,06,03,56,10.60
2012,07,06,03,57,10.60
2012,07,06,03,58,10.60
2012,07,06,03,59,10.60
2012,07,06,04,00,10.50
2012,07,06,04,01,10.50
2012,07,06,04,02,10.50
2012,07,06,04,03,10.40
2012,07,06,04,04,10.40
2012,07,06,04,05,10.40
2012,07,06,04,06,10.30
2012,07,06,04,07,10.30
2012,07,06,04,08,10.30
2012,07,06,04,09,10.30
2012,07,06,04,10,10.20
2012,07,06,04,11,10.20
2012,07,06,04,12,10.20
2012,07,06,04,13,10.10
2012,07,06,04,14,10.10
2012,07,06,04,15,10.10
2012,07,06,04,16,10.00
2012,07,06,04,17,10.00
2012,07,06,04,18,9.90
2012,07,06,04,19,9.90
2012,07,06,04,20,9.90
2012,07,06,04,21,9.80
2012,07,06,04,22,9.80
2012,07,06,04,23,9.80
2012,07,06,04,24,9.80
2012,07,06,04,25,9.80
2012,07,06,04,26,9.70
2012,07,06,04,27,9.70
2012,07,06,04,28,9.70
2012,07,06,04,29,9.70
2012,07,06,04,30,9.60
2012,07,06,04,31,9.60
2012,07,06,04,32,9.60
2012,07,06,04,33,9.60
2012,07,06,04,34,9.50
2012,07,06,04,35,9.50
2012,07,06,04,36,9.50
2012,07,06,04,37,9.40
2012,07,06,04,38,9.40
2012,07,06,04,39,9.40
2012,07,06,04,40,9.30
2012,07,06,04,41,9.30
2012,07,06,04,42,9.30
2012,07,06,04,43,9.30
2012,07,06,04,44,9.20
2012,07,06,04,45,9.20
2012,07,06,04,46,9.20
2012,07,06,04,47,9.20
2012,07,06,04,48,9.10
2012,07,06,04,49,9.10
2012,07,06,04,50,9.10
2012,07,06,04,51,9.00
2012,07,06,04,52,9.00
2012,07,06,04,53,9.00
2012,07,06,04,54,8.90
2012,07,06,04,55,8.90
2012,07,06,04,56,8.90
2012,07,06,04,57,8.90
2012,07,06,04,58,8.90
2012,07,06,04,59,8.80
2012,07,06,05,00,8.80
2012,07,06,05,01,8.80
2012,07,06,05,02,8.80
2012,07,06,05,03,8.80
2012,07,06,05,04,8.80
2012,07,06,05,05,8.80
2012,07,06,05,06,8.70
2012,07,06,05,07,8.70
2012,07,06,05,08,8.70
2012,07,06,05,09,8.70
2012,07,06,05,10,8.70
2012,07,06,05,11,8.70
2012,07,06,05,12,8.70
2012,07,06,05,13,8.70
2012,07,06,05,14,8.60
2012,07,06,05,15,8.60
2012,07,06,05,16,8.60
2012,07,06,05,17,8.60
2012,07,06,05,18,8.60
2012,07,06,05,19,8.60
2012,07,06,05,20,8.60
2012,07,06,05,21,8.50
2012,07,06,05,22,8.50
2012,07,06,05,23,8.50
2012,07,06,05,24,8.50
2012,07,06,05,25,8.50
2012,07,06,05,26,8.50
2012,07,06,05,27,8.50
2012,07,06,05,28,8.50
2012,07,06,05,29,8.50
2012,07,06,05,30,8.50
2012,07,06,05,31,8.50
2012,07,06,05,32,8.50
2012,07,06,05,33,8.50
2012,07,06,05,34,8.50
2012,07,06,05,35,8.40
2012,07,06,05,36,8.40
2012,07,06,05,37,8.40
2012,07,06,05,38,8.40
2012,07,06,05,39,8.40
2012,07,06,05,40,8.40
2012,07,06,05,41,8.30
2012,07,06,05,42,8.30
2012,07,06,05,43,8.30
2012,07,06,05,44,8.30
2012,07,06,05,45,8.30
2012,07,06,05,46,8.30
2012,07,06,05,47,8.30
2012,07,06,05,48,8.30
2012,07,06,05,49,8.20
2012,07,06,05,50,8.20
2012,07,06,05,51,8.20
2012,07,06,05,52,8.20
2012,07,06,05,53,8.20
2012,07,06,05,54,8.20
2012,07,06,05,55,8.20
2012,07,06,05,56,8.20
2012,07,06,05,57,8.20
2012,07,06,05,58,8.20
2012,07,06,05,59,8.20
2012,07,06,06,00,8.20
2012,07,06,06,01,8.20
2012,07,06,06,02,8.20
2012,07,06,06,03,8.30
2012,07,06,06,04,8.30
2012,07,06,06,05,8.30
2012,07,06,06,06,8.30
2012,07,06,06,07,8.30
2012,07,06,06,08,8.30
2012,07,06,06,09,8.30
2012,07,06,06,10,8.30
2012,07,06,06,11,8.30
2012,07,06,06,12,8.30
2012,07,06,06,13,8.30
2012,07,06,06,14,8.30
2012,07,06,06,15,8.30
2012,07,06,06,16,8.30
2012,07,06,06,17,8.30
2012,07,06,06,18,8.30
2012,07,06,06,19,8.30
2012,07,06,06,20,8.40
2012,07,06,06,21,8.40
2012,07,06,06,22,8.40
2012,07,06,06,23,8.40
2012,07,06,06,24,8.40
2012,07,06,06,25,8.40
2012,07,06,06,26,8.40
2012,07,06,06,27,8.40
2012,07,06,06,28,8.50
2012,07,06,06,29,8.50
2012,07,06,06,30,8.50
2012,07,06,06,31,8.50
2012,07,06,06,32,8.60
2012,07,06,06,33,8.60
2012,07,06,06,34,8.60
2012,07,06,06,35,8.60
2012,07,06,06,36,8.60
2012,07,06,06,37,8.70
2012,07,06,06,38,8.70
2012,07,06,06,39,8.70
2012,07,06,06,40,8.80
2012,07,06,06,41,8.80
2012,07,06,06,42,8.80
2012,07,06,06,43,8.90
2012,07,06,06,44,8.90
2012,07,06,06,45,9.00
2012,07,06,06,46,9.00
2012,07,06,06,47,9.00
2012,07,06,06,48,9.00
2012,07,06,06,49,9.10
2012,07,06,06,50,9.10
2012,07,06,06,51,9.10
2012,07,06,06,52,9.20
2012,07,06,06,53,9.20
2012,07,06,06,54,9.20
2012,07,06,06,55,9.20
2012,07,06,06,56,9.20
2012,07,06,06,57,9.30
2012,07,06,06,58,9.30
2012,07,06,06,59,9.30
2012,07,06,07,00,9.30
2012,07,06,07,01,9.40
2012,07,06,07,02,9.40
2012,07,06,07,03,9.40
2012,07,06,07,04,9.40
2012,07,06,07,05,9.40
2012,07,06,07,06,9.50
2012,07,06,07,07,9.50
2012,07,06,07,08,9.50
2012,07,06,07,09,9.60
2012,07,06,07,10,9.60
2012,07,06,07,11,9.60
2012,07,06,07,12,9.60
2012,07,06,07,13,9.70
2012,07,06,07,14,9.70
2012,07,06,07,15,9.70
2012,07,06,07,16,9.70
2012,07,06,07,17,9.80
2012,07,06,07,18,9.80
2012,07,06,07,19,9.80
2012,07,06,07,20,9.80
2012,07,06,07,21,9.80
2012,07,06,07,22,9.80
2012,07,06,07,23,9.80
2012,07,06,07,24,9.90
2012,07,06,07,25,9.90
2012,07,06,07,26,9.90
2012,07,06,07,27,9.90
2012,07,06,07,28,9.90
2012,07,06,07,29,9.90
2012,07,06,07,30,10.00
2012,07,06,07,31,10.00
2012,07,06,07,32,10.00
2012,07,06,07,33,10.00
2012,07,06,07,34,10.00
2012,07,06,07,35,10.00
2012,07,06,07,36,10.10
2012,07,06,07,37,10.10
2012,07,06,07,38,10.10
2012,07,06,07,39,10.10
2012,07,06,07,40,10.10
2012,07,06,07,41,10.10
2012,07,06,07,42,10.10
2012,07,06,07,43,10.10
2012,07,06,07,44,10.10
2012,07,06,07,45,10.10
2012,07,06,07,46,10.10
2012,07,06,07,47,10.10
2012,07,06,07,48,10.10
2012,07,06,07,49,10.10
2012,07,06,07,50,10.20
2012,07,06,07,51,10.20
2012,07,06,07,52,10.20
2012,07,06,07,53,10.20
2012,07,06,07,54,10.20
2012,07,06,07,55,10.30
2012,07,06,07,56,10.30
2012,07,06,07,57,10.40
2012,07,06,07,58,10.40
2012,07,06,07,59,10.50
2012,07,06,08,00,10.50
2012,07,06,08,01,10.60
2012,07,06,08,02,10.70
2012,07,06,08,03,10.80
2012,07,06,08,04,10.90
2012,07,06,08,05,11.00
2012,07,06,08,06,11.00
2012,07,06,08,07,11.10
2012,07,06,08,08,11.20
2012,07,06,08,09,11.20
2012,07,06,08,10,11.30
2012,07,06,08,11,11.40
2012,07,06,08,12,11.40
2012,07,06,08,13,11.50
2012,07,06,08,14,11.50
2012,07,06,08,15,11.50
2012,07,06,08,16,11.60
2012,07,06,08,17,11.60
2012,07,06,08,18,11.60
2012,07,06,08,19,11.60
2012,07,06,08,20,11.70
2012,07,06,08,21,11.70
2012,07,06,08,22,11.70
2012,07,06,08,23,11.80
2012,07,06,08,24,11.80
2012,07,06,08,25,11.80
2012,07,06,08,26,11.80
2012,07,06,08,27,11.80
2012,07,06,08,28,11.80
2012,07,06,08,29,11.80
2012,07,06,08,30,11.80
2012,07,06,08,31,11.80
2012,07,06,08,32,11.80
2012,07,06,08,33,11.80
2012,07,06,08,34,11.80
2012,07,06,08,35,11.80
2012,07,06,08,36,11.80
2012,07,06,08,37,11.80
2012,07,06,08,38,11.80
2012,07,06,08,39,11.80
2012,07,06,08,40,11.80
2012,07,06,08,41,11.80
2012,07,06,08,42,11.90
2012,07,06,08,43,11.90
2012,07,06,08,44,11.90
2012,07,06,08,45,12.00
2012,07,06,08,46,12.10
2012,07,06,08,47,12.10
2012,07,06,08,48,12.20
2012,07,06,08,49,12.20
2012,07,06,08,50,12.30
2012,07,06,08,51,12.40
2012,07,06,08,52,12.40
2012,07,06,08,53,12.50
2012,07,06,08,54,12.60
2012,07,06,08,55,12.60
2012,07,06,08,56,12.70
2012,07,06,08,57,12.80
2012,07,06,08,58,12.80
2012,07,06,08,59,12.90
2012,07,06,09,00,13.00
2012,07,06,09,01,13.10
2012,07,06,09,02,13.10
2012,07,06,09,03,13.20
2012,07,06,09,04,13.20
2012,07,06,09,05,13.30
2012,07,06,09,06,13.30
2012,07,06,09,07,13.40
2012,07,06,09,08,13.40
2012,07,06,09,09,13.40
2012,07,06,09,10,13.50
2012,07,06,09,11,13.50
2012,07,06,09,12,13.60
2012,07,06,09,13,13.60
2012,07,06,09,14,13.70
2012,07,06,09,15,13.70
2012,07,06,09,16,13.80
2012,07,06,09,17,13.90
2012,07,06,09,18,14.00
2012,07,06,09,19,14.00
2012,07,06,09,20,14.10
2012,07,06,09,21,14.10
2012,07,06,09,22,14.20
2012,07,06,09,23,14.20
2012,07,06,09,24,14.30
2012,07,06,09,25,14.40
2012,07,06,09,26,14.40
2012,07,06,09,27,14.50
2012,07,06,09,28,14.60
2012,07,06,09,29,14.60
2012,07,06,09,30,14.70
2012,07,06,09,31,14.70
2012,07,06,09,32,14.80
2012,07,06,09,33,14.80
2012,07,06,09,34,14.80
2012,07,06,09,35,14.80
2012,07,06,09,36,14.90
2012,07,06,09,37,14.90
2012,07,06,09,38,15.00
2012,07,06,09,39,15.00
2012,07,06,09,40,15.00
2012,07,06,09,41,15.00
2012,07,06,09,42,15.00
2012,07,06,09,43,15.00
2012,07,06,09,44,15.10
2012,07,06,09,45,15.10
2012,07,06,09,46,15.10
2012,07,06,09,47,15.20
2012,07,06,09,48,15.20
2012,07,06,09,49,15.30
2012,07,06,09,50,15.40
2012,07,06,09,51,15.50
2012,07,06,09,52,15.60
2012,07,06,09,53,15.60
2012,07,06,09,54,15.70
2012,07,06,09,55,15.80
2012,07,06,09,56,15.80
2012,07,06,09,57,15.90
2012,07,06,09,58,16.00
2012,07,06,09,59,16.10
2012,07,06,10,00,16.20
2012,07,06,10,01,16.20
2012,07,06,10,02,16.30
2012,07,06,10,03,16.30
2012,07,06,10,04,16.30
2012,07,06,10,05,16.40
2012,07,06,10,06,16.40
2012,07,06,10,07,16.50
2012,07,06,10,08,16.60
2012,07,06,10,09,16.70
2012,07,06,10,10,16.80
2012,07,06,10,11,16.90
2012,07,06,10,12,17.10
2012,07,06,10,13,17.20
2012,07,06,10,14,17.30
2012,07,06,10,15,17.40
2012,07,06,10,16,17.50
2012,07,06,10,17,17.60
2012,07,06,10,18,17.70
2012,07,06,10,19,17.70
2012,07,06,10,20,17.80
2012,07,06,10,21,17.90
2012,07,06,10,22,17.90
2012,07,06,10,23,18.00
2012,07,06,10,24,18.00
2012,07,06,10,25,18.10
2012,07,06,10,26,18.10
2012,07,06,10,27,18.20
2012,07,06,10,28,18.20
2012,07,06,10,29,18.20
2012,07,06,10,30,18.20
2012,07,06,10,31,18.20
2012,07,06,10,32,18.20
2012,07,06,10,33,18.20
2012,07,06,10,34,18.20
2012,07,06,10,35,18.20
2012,07,06,10,36,18.20
2012,07,06,10,37,18.20
2012,07,06,10,38,18.20
2012,07,06,10,39,18.20
2012,07,06,10,40,18.20
2012,07,06,10,41,18.20
2012,07,06,10,42,18.30
2012,07,06,10,43,18.30
2012,07,06,10,44,18.30
2012,07,06,10,45,18.30
2012,07,06,10,46,18.30
2012,07,06,10,47,18.30
2012,07,06,10,48,18.30
2012,07,06,10,49,18.30
2012,07,06,10,50,18.30
2012,07,06,10,51,18.30
2012,07,06,10,52,18.30
2012,07,06,10,53,18.30
2012,07,06,10,54,18.30
2012,07,06,10,55,18.20
2012,07,06,10,56,18.20
2012,07,06,10,57,18.20
2012,07,06,10,58,18.10
2012,07,06,10,59,18.20
2012,07,06,11,00,18.20
2012,07,06,11,01,18.20
2012,07,06,11,02,18.20
2012,07,06,11,03,18.20
2012,07,06,11,04,18.20
2012,07,06,11,05,18.20
2012,07,06,11,06,18.30
2012,07,06,11,07,18.40
2012,07,06,11,08,18.50
2012,07,06,11,09,18.50
2012,07,06,11,10,18.60
2012,07,06,11,11,18.70
2012,07,06,11,12,18.70
2012,07,06,11,13,18.80
2012,07,06,11,14,18.80
2012,07,06,11,15,18.90
2012,07,06,11,16,18.90
2012,07,06,11,17,18.90
2012,07,06,11,18,18.90
2012,07,06,11,19,18.90
2012,07,06,11,20,18.90
2012,07,06,11,21,19.00
2012,07,06,11,22,19.00
2012,07,06,11,23,19.00
2012,07,06,11,24,19.10
2012,07,06,11,25,19.10
2012,07,06,11,26,19.10
2012,07,06,11,27,19.20
2012,07,06,11,28,19.20
2012,07,06,11,29,19.30
2012,07,06,11,30,19.30
2012,07,06,11,31,19.40
2012,07,06,11,32,19.40
2012,07,06,11,33,19.40
2012,07,06,11,34,19.40
2012,07,06,11,35,19.40
2012,07,06,11,36,19.50
2012,07,06,11,37,19.50
2012,07,06,11,38,19.50
2012,07,06,11,39,19.40
2012,07,06,11,40,19.30
2012,07,06,11,41,19.30
2012,07,06,11,42,19.30
2012,07,06,11,43,19.30
2012,07,06,11,44,19.40
2012,07,06,11,45,19.40
2012,07,06,11,46,19.40
2012,07,06,11,47,19.40
2012,07,06,11,48,19.40
2012,07,06,11,49,19.40
2012,07,06,11,50,19.40
2012,07,06,11,51,19.40
2012,07,06,11,52,19.40
2012,07,06,11,53,19.40
2012,07,06,11,54,19.40
2012,07,06,11,55,19.50
2012,07,06,11,56,19.50
2012,07,06,11,57,19.50
2012,07,06,11,58,19.50
2012,07,06,11,59,19.50
2012,07,06,12,00,19.60
2012,07,06,12,01,19.60
2012,07,06,12,02,19.70
2012,07,06,12,03,19.70
2012,07,06,12,04,19.70
2012,07,06,12,05,19.70
2012,07,06,12,06,19.70
2012,07,06,12,07,19.80
2012,07,06,12,08,19.80
2012,07,06,12,09,19.80
2012,07,06,12,10,19.90
2012,07,06,12,11,20.00
2012,07,06,12,12,20.00
2012,07,06,12,13,20.00
2012,07,06,12,14,20.10
2012,07,06,12,15,20.10
2012,07,06,12,16,20.00
2012,07,06,12,17,20.00
2012,07,06,12,18,19.90
2012,07,06,12,19,19.90
2012,07,06,12,20,19.90
2012,07,06,12,21,19.90
2012,07,06,12,22,19.90
2012,07,06,12,23,19.90
2012,07,06,12,24,19.90
2012,07,06,12,25,20.00
2012,07,06,12,26,20.10
2012,07,06,12,27,20.10
2012,07,06,12,28,20.20
2012,07,06,12,29,20.20
2012,07,06,12,30,20.30
2012,07,06,12,31,20.30
2012,07,06,12,32,20.30
2012,07,06,12,33,20.40
2012,07,06,12,34,20.40
2012,07,06,12,35,20.40
2012,07,06,12,36,20.40
2012,07,06,12,37,20.40
2012,07,06,12,38,20.40
2012,07,06,12,39,20.30
2012,07,06,12,40,20.30
2012,07,06,12,41,20.30
2012,07,06,12,42,20.30
2012,07,06,12,43,20.20
2012,07,06,12,44,20.20
2012,07,06,12,45,20.20
2012,07,06,12,46,20.20
2012,07,06,12,47,20.30
2012,07,06,12,48,20.30
2012,07,06,12,49,20.30
2012,07,06,12,50,20.40
2012,07,06,12,51,20.40
2012,07,06,12,52,20.40
2012,07,06,12,53,20.40
2012,07,06,12,54,20.40
2012,07,06,12,55,20.50
2012,07,06,12,56,20.50
2012,07,06,12,57,20.50
2012,07,06,12,58,20.50
2012,07,06,12,59,20.40
2012,07,06,13,00,20.50
2012,07,06,13,01,20.50
2012,07,06,13,02,20.50
2012,07,06,13,03,20.60
2012,07,06,13,04,20.70
2012,07,06,13,05,20.70
2012,07,06,13,06,20.60
2012,07,06,13,07,20.50
2012,07,06,13,08,20.50
2012,07,06,13,09,20.50
2012,07,06,13,10,20.50
2012,07,06,13,11,20.40
2012,07,06,13,12,20.40
2012,07,06,13,13,20.40
2012,07,06,13,14,20.30
2012,07,06,13,15,20.30
2012,07,06,13,16,20.30
2012,07,06,13,17,20.30
2012,07,06,13,18,20.30
2012,07,06,13,19,20.30
2012,07,06,13,20,20.30
2012,07,06,13,21,20.40
2012,07,06,13,22,20.50
2012,07,06,13,23,20.50
2012,07,06,13,24,20.60
2012,07,06,13,25,20.70
2012,07,06,13,26,20.80
2012,07,06,13,27,20.80
2012,07,06,13,28,20.90
2012,07,06,13,29,20.90
2012,07,06,13,30,21.00
2012,07,06,13,31,21.00
2012,07,06,13,32,21.10
2012,07,06,13,33,21.10
2012,07,06,13,34,21.20
2012,07,06,13,35,21.20
2012,07,06,13,36,21.20
2012,07,06,13,37,21.20
2012,07,06,13,38,21.30
2012,07,06,13,39,21.30
2012,07,06,13,40,21.40
2012,07,06,13,41,21.40
2012,07,06,13,42,21.40
2012,07,06,13,43,21.30
2012,07,06,13,44,21.30
2012,07,06,13,45,21.30
2012,07,06,13,46,21.30
2012,07,06,13,47,21.40
2012,07,06,13,48,21.40
2012,07,06,13,49,21.60
2012,07,06,13,50,21.70
2012,07,06,13,51,21.70
2012,07,06,13,52,21.80
2012,07,06,13,53,21.80
2012,07,06,13,54,21.80
2012,07,06,13,55,21.90
2012,07,06,13,56,21.90
2012,07,06,13,57,21.80
2012,07,06,13,58,21.80
2012,07,06,13,59,21.80
2012,07,06,14,00,21.80
2012,07,06,14,01,21.80
2012,07,06,14,02,21.80
2012,07,06,14,03,21.80
2012,07,06,14,04,21.80
2012,07,06,14,05,21.80
2012,07,06,14,06,21.70
2012,07,06,14,07,21.70
2012,07,06,14,08,21.80
2012,07,06,14,09,21.80
2012,07,06,14,10,21.80
2012,07,06,14,11,21.80
2012,07,06,14,12,21.80
2012,07,06,14,13,21.80
2012,07,06,14,14,21.90
2012,07,06,14,15,21.90
2012,07,06,14,16,22.00
2012,07,06,14,17,22.10
2012,07,06,14,18,22.10
2012,07,06,14,19,22.10
2012,07,06,14,20,22.10
2012,07,06,14,21,22.10
2012,07,06,14,22,22.10
2012,07,06,14,23,22.20
2012,07,06,14,24,22.10
2012,07,06,14,25,22.10
2012,07,06,14,26,22.10
2012,07,06,14,27,22.10
2012,07,06,14,28,22.20
2012,07,06,14,29,22.20
2012,07,06,14,30,22.20
2012,07,06,14,31,22.20
2012,07,06,14,32,22.30
2012,07,06,14,33,22.30
2012,07,06,14,34,22.30
2012,07,06,14,35,22.30
2012,07,06,14,36,22.30
2012,07,06,14,37,22.30
2012,07,06,14,38,22.20
2012,07,06,14,39,22.20
2012,07,06,14,40,22.10
2012,07,06,14,41,22.00
2012,07,06,14,42,22.00
2012,07,06,14,43,22.00
2012,07,06,14,44,22.00
2012,07,06,14,45,22.00
2012,07,06,14,46,22.00
2012,07,06,14,47,22.00
2012,07,06,14,48,22.00
2012,07,06,14,49,21.90
2012,07,06,14,50,21.90
2012,07,06,14,51,21.90
2012,07,06,14,52,21.80
2012,07,06,14,53,21.80
2012,07,06,14,54,21.80
2012,07,06,14,55,21.80
2012,07,06,14,56,21.80
2012,07,06,14,57,21.80
2012,07,06,14,58,21.80
2012,07,06,14,59,21.80
2012,07,06,15,00,21.90
2012,07,06,15,01,22.00
2012,07,06,15,02,22.10
2012,07,06,15,03,22.10
2012,07,06,15,04,22.20
2012,07,06,15,05,22.30
2012,07,06,15,06,22.40
2012,07,06,15,07,22.50
2012,07,06,15,08,22.60
2012,07,06,15,09,22.60
2012,07,06,15,10,22.70
2012,07,06,15,11,22.70
2012,07,06,15,12,22.70
2012,07,06,15,13,22.80
2012,07,06,15,14,22.80
2012,07,06,15,15,22.80
2012,07,06,15,16,22.80
2012,07,06,15,17,22.80
2012,07,06,15,18,22.80
2012,07,06,15,19,22.80
2012,07,06,15,20,22.70
2012,07,06,15,21,22.80
2012,07,06,15,22,22.80
2012,07,06,15,23,22.80
2012,07,06,15,24,22.90
2012,07,06,15,25,22.90
2012,07,06,15,26,23.00
2012,07,06,15,27,23.00
2012,07,06,15,28,23.10
2012,07,06,15,29,23.20
2012,07,06,15,30,23.10
2012,07,06,15,31,23.20
2012,07,06,15,32,23.20
2012,07,06,15,33,23.20
2012,07,06,15,34,23.20
2012,07,06,15,35,23.20
2012,07,06,15,36,23.20
2012,07,06,15,37,23.30
2012,07,06,15,38,23.30
2012,07,06,15,39,23.30
2012,07,06,15,40,23.30
2012,07,06,15,41,23.40
2012,07,06,15,42,23.40
2012,07,06,15,43,23.40
2012,07,06,15,44,23.50
2012,07,06,15,45,23.50
2012,07,06,15,46,23.50
2012,07,06,15,47,23.50
2012,07,06,15,48,23.50
2012,07,06,15,49,23.60
2012,07,06,15,50,23.60
2012,07,06,15,51,23.60
2012,07,06,15,52,23.60
2012,07,06,15,53,23.60
2012,07,06,15,54,23.60
2012,07,06,15,55,23.50
2012,07,06,15,56,23.50
2012,07,06,15,57,23.40
2012,07,06,15,58,23.30
2012,07,06,15,59,23.30
2012,07,06,16,00,23.20
2012,07,06,16,01,23.20
2012,07,06,16,02,23.10
2012,07,06,16,03,23.10
2012,07,06,16,04,23.10
2012,07,06,16,05,23.10
2012,07,06,16,06,23.10
2012,07,06,16,07,23.10
2012,07,06,16,08,23.10
2012,07,06,16,09,23.10
2012,07,06,16,10,23.10
2012,07,06,16,11,23.10
2012,07,06,16,12,23.10
2012,07,06,16,13,23.10
2012,07,06,16,14,23.20
2012,07,06,16,15,23.20
2012,07,06,16,16,23.20
2012,07,06,16,17,23.20
2012,07,06,16,18,23.20
2012,07,06,16,19,23.30
2012,07,06,16,20,23.30
2012,07,06,16,21,23.30
2012,07,06,16,22,23.30
2012,07,06,16,23,23.30
2012,07,06,16,24,23.30
2012,07,06,16,25,23.30
2012,07,06,16,26,23.40
2012,07,06,16,27,23.40
2012,07,06,16,28,23.40
2012,07,06,16,29,23.40
2012,07,06,16,30,23.40
2012,07,06,16,31,23.40
2012,07,06,16,32,23.40
2012,07,06,16,33,23.40
2012,07,06,16,34,23.40
2012,07,06,16,35,23.30
2012,07,06,16,36,23.30
2012,07,06,16,37,23.20
2012,07,06,16,38,23.20
2012,07,06,16,39,23.10
2012,07,06,16,40,23.10
2012,07,06,16,41,23.10
2012,07,06,16,42,23.10
2012,07,06,16,43,23.10
2012,07,06,16,44,23.10
2012,07,06,16,45,23.10
2012,07,06,16,46,23.10
2012,07,06,16,47,23.10
2012,07,06,16,48,23.10
2012,07,06,16,49,23.20
2012,07,06,16,50,23.20
2012,07,06,16,51,23.30
2012,07,06,16,52,23.30
2012,07,06,16,53,23.30
2012,07,06,16,54,23.30
2012,07,06,16,55,23.30
2012,07,06,16,56,23.30
2012,07,06,16,57,23.30
2012,07,06,16,58,23.30
2012,07,06,16,59,23.30
2012,07,06,17,00,23.30
2012,07,06,17,01,23.20
2012,07,06,17,02,23.30
2012,07,06,17,03,23.30
2012,07,06,17,04,23.30
2012,07,06,17,05,23.30
2012,07,06,17,06,23.30
2012,07,06,17,07,23.40
2012,07,06,17,08,23.40
2012,07,06,17,09,23.40
2012,07,06,17,10,23.40
2012,07,06,17,11,23.40
2012,07,06,17,12,23.40
2012,07,06,17,13,23.40
2012,07,06,17,14,23.50
2012,07,06,17,15,23.50
2012,07,06,17,16,23.60
2012,07,06,17,17,23.60
2012,07,06,17,18,23.60
2012,07,06,17,19,23.70
2012,07,06,17,20,23.70
2012,07,06,17,21,23.80
2012,07,06,17,22,23.80
2012,07,06,17,23,23.80
2012,07,06,17,24,23.80
2012,07,06,17,25,23.80
2012,07,06,17,26,23.90
2012,07,06,17,27,23.90